Location: Boursonne
(49.2024°N, 3.0468°E)
Time: 00:31:42
(UTC+00:00)

Meteor 2-12 Rocket - Pass Details

Date: 03 March 2021
Orbit: 936 x 957 km, 82.5° (Epoch: 14 April)

Event Time Altitude Azimuth Distance (km) Brightness Sun altitude
Rises 18:49:59 0° 185° (S) 3,586 7.5 -13.1°
Reaches altitude 10° 18:52:27 10° 185° (S) 2,648 6.8 -13.5°
Maximum altitude 18:58:30 84° 99° (E) 955 4.4 -14.5°
Drops below altitude 10° 19:04:38 10° 11° (N) 2,679 6.8 -15.5°
Sets 19:07:09 0° 11° (N) 3,632 7.5 -15.9°
